User: anonymous   Login
Location: Unspecified
(0.0000°N, 0.0000°E)
Time: 14:27:59
(UTC+00:00)
Language:

OBJECT E - Orbit

View from above orbital plane
View from above orbital plane
View from above satellite
View from above satellite

Ground track
Ground track

The orbit data is extracted from the following two-line orbital elements,

1 43666U 18083E   21334.17228516  .00002693  00000-0  12748-3 0  9995
2 43666  97.4423   0.4068 0012977 315.7649 116.9743 15.20140789171181
Epoch (UTC): 30 November 2021 04:08:05
Eccentricity: 0.0012977
inclination: 97.4423°
perigee height: 496 km
apogee height: 514 km
right ascension of ascending node: 0.4068°
argument of perigee: 315.7649°
revolutions per day: 15.20140789
mean anomaly at epoch: 116.9743°
orbit number at epoch: 17118

The dashed part of the orbit path shows where the satellite is in the earth's shadow,  

DLR